Lid_Strength_Index
7 6 6 6 7 6 6 4 3 3 3 3 3 3 4 5 5 4 5 5 6 6
5 6 6 6 6 5 4 3 4 4 4 4 4 4 4 5 5 5 5 6 6 6
6 6 6 6 5 4 4 4 4 4 4 4 4 5 5 5 5 5 5 5 6 5
5 5 4 5 5 4 4 5 5 4 4 5 5 5 6 6 6 6 6 6 6 6
4 5 5 4 5 5 5 5 5 5 5 5 6 6 6 6 6 6 6 6 6 6
6 5 5 5 5 4 5 5 5 5 6 6 6 6 5 6 6 6 6 5 5 5
7 6 6 6 6 5 5 5 5 5 5 5 6 6 5 5 5 5 5 5 5 5
7 7 7 6 6 6 6 6 5 5 5 5 5 4 5 5 6 6 6 6 6 5
9 8 8 8 7 7 7 6 6 6 6 6 5 7 6 7 8 8 8 8 8 7
9 9 9 8 8 8 7 7 7 6 6 6 6 8 9 8 9 9 9 9 8 8
10 9 9 9 8 8 7 7 7 6 6 7 7 8 9 9 10 10 10 10 9 9
10 9 9 8 8 7 7 7 6 6 7 8 9 10 10 10 11 11 11 10 9 9
10 9 8 8 8 8 8 8 8 8 9 9 10 11 11 11 12 12 12 11 9 8
10 9 8 9 9 9 10 9 9 10 10 11 11 11 11 12 12 13 13 11 9 8